FYI1648 LFPG-LGAV

Flight info

Callsign FYI1648
Flight time N/A
Altitude 35000
Route LANVI DCT BEGAR DCT TRA DCT GAMSA DCT GEDSO DCT VEKEN DCT DARZA DCT PINDO DCT PIKOS UL607 XORKI
Aircraft A320/M-SDE3FGHIRWY/LB1

Departure

Time 2026-05-01 13:15
Airport Charles de Gaulle International Airport (LFPG)

Arrival

Time N/A
Airport Athens Eleftherios Venizelos International Airport (LGAV)
Time Latitude Longitude Altitude Speed Heading
2026-05-01 12:54 49.00523 2.56095 361 ft 0 kts 165°
2026-05-01 13:00 49.00523 2.56094 354 ft 0 kts 165°
2026-05-01 13:07 49.00591 2.56119 362 ft 0 kts 255°
2026-05-01 13:08 49.00582 2.56072 354 ft 9 kts 255°
2026-05-01 13:08 49.00567 2.55993 354 ft 7 kts 255°
2026-05-01 13:08 49.00566 2.55915 357 ft 7 kts 276°
2026-05-01 13:08 49.00568 2.55849 360 ft 5 kts 267°
2026-05-01 13:09 49.00565 2.55793 362 ft 9 kts 266°
2026-05-01 13:09 49.00561 2.55708 356 ft 8 kts 265°
2026-05-01 13:09 49.00558 2.55635 354 ft 6 kts 265°
2026-05-01 13:09 49.00553 2.55558 354 ft 12 kts 264°
2026-05-01 13:10 49.00545 2.55447 354 ft 8 kts 264°
2026-05-01 13:10 49.00491 2.55339 357 ft 17 kts 205°
2026-05-01 13:10 49.00372 2.55362 354 ft 18 kts 164°
2026-05-01 13:10 49.00248 2.55416 357 ft 19 kts 164°
2026-05-01 13:11 49.00118 2.55474 357 ft 20 kts 163°
2026-05-01 13:11 49.00001 2.55492 360 ft 16 kts 213°
2026-05-01 13:11 48.99939 2.55383 359 ft 13 kts 188°
2026-05-01 13:11 48.99855 2.55418 364 ft 12 kts 161°
2026-05-01 13:12 48.99780 2.55449 362 ft 10 kts 166°
2026-05-01 13:12 48.99718 2.55447 354 ft 7 kts 196°
2026-05-01 13:12 48.99679 2.55444 362 ft 5 kts 171°
2026-05-01 13:12 48.99656 2.55466 356 ft 3 kts 141°
2026-05-01 13:13 48.99624 2.55507 358 ft 7 kts 139°
2026-05-01 13:13 48.99586 2.55593 355 ft 13 kts 101°
2026-05-01 13:13 48.99591 2.55672 354 ft 0 kts 84°
2026-05-01 13:13 48.99591 2.55673 354 ft 1 kts 84°
2026-05-01 13:14 48.99610 2.56023 354 ft 69 kts 85°
2026-05-01 13:14 48.99666 2.57069 351 ft 127 kts 85°
2026-05-01 13:14 48.99752 2.58658 357 ft 172 kts 85°
2026-05-01 13:14 48.99855 2.60498 909 ft 174 kts 86°
2026-05-01 13:15 48.99966 2.62333 1563 ft 174 kts 89°
2026-05-01 13:15 49.00065 2.64202 2134 ft 184 kts 87°
2026-05-01 13:15 49.00163 2.66236 2497 ft 202 kts 88°
2026-05-01 13:15 49.00274 2.68467 2816 ft 220 kts 88°
2026-05-01 13:16 49.00398 2.70904 3139 ft 243 kts 88°
2026-05-01 13:16 49.00535 2.73570 3605 ft 260 kts 87°
2026-05-01 13:16 49.00680 2.76361 4315 ft 267 kts 87°
2026-05-01 13:17 49.00027 2.84882 6768 ft 274 kts 101°
2026-05-01 13:17 48.99713 2.87757 7534 ft 277 kts 101°
2026-05-01 13:18 48.99081 2.93584 9128 ft 281 kts 102°
2026-05-01 13:18 48.98768 2.96535 9922 ft 284 kts 101°
2026-05-01 13:18 48.98490 2.99538 10527 ft 293 kts 100°
2026-05-01 13:18 48.98221 3.02736 10725 ft 316 kts 99°
2026-05-01 13:19 48.97948 3.06147 11110 ft 330 kts 99°
2026-05-01 13:19 48.97674 3.09643 11743 ft 335 kts 99°
2026-05-01 13:19 48.97104 3.16731 13122 ft 340 kts 99°
2026-05-01 13:20 48.96805 3.20314 13792 ft 343 kts 100°
2026-05-01 13:20 48.96499 3.23923 14410 ft 345 kts 100°
2026-05-01 13:20 48.96187 3.27562 14982 ft 348 kts 100°
2026-05-01 13:21 48.95546 3.34934 16117 ft 354 kts 101°
2026-05-01 13:21 48.95223 3.38669 16681 ft 358 kts 101°
2026-05-01 13:21 48.94896 3.42436 17233 ft 361 kts 101°
2026-05-01 13:21 48.94564 3.46241 17781 ft 364 kts 101°
2026-05-01 13:22 48.94228 3.50074 18322 ft 367 kts 101°
2026-05-01 13:22 48.93892 3.53889 18773 ft 371 kts 101°
2026-05-01 13:22 48.93578 3.57860 19237 ft 375 kts 98°
2026-05-01 13:22 48.93347 3.61772 19718 ft 378 kts 97°
2026-05-01 13:23 48.93153 3.65766 20202 ft 380 kts 97°
2026-05-01 13:23 48.92972 3.69788 20685 ft 382 kts 97°
2026-05-01 13:23 48.92788 3.73820 21156 ft 383 kts 97°
2026-05-01 13:23 48.92590 3.77871 21629 ft 385 kts 97°
2026-05-01 13:24 48.92380 3.81943 22099 ft 387 kts 97°
2026-05-01 13:24 48.92160 3.86026 22549 ft 389 kts 98°
2026-05-01 13:24 48.91934 3.90133 22987 ft 391 kts 98°
2026-05-01 13:25 48.91475 3.98399 23852 ft 394 kts 98°
2026-05-01 13:25 48.91243 4.02563 24216 ft 396 kts 98°
2026-05-01 13:25 48.91008 4.06739 24576 ft 398 kts 98°
2026-05-01 13:25 48.90767 4.10939 24925 ft 400 kts 98°
2026-05-01 13:26 48.90524 4.15154 25270 ft 401 kts 98°
2026-05-01 13:26 48.90235 4.19380 25605 ft 402 kts 102°
2026-05-01 13:26 48.89555 4.23480 25927 ft 400 kts 112°
2026-05-01 13:26 48.88419 4.27326 26256 ft 399 kts 121°
2026-05-01 13:27 48.87057 4.31007 26586 ft 401 kts 121°
2026-05-01 13:27 48.85693 4.34708 26904 ft 403 kts 121°
2026-05-01 13:27 48.82950 4.42195 27413 ft 409 kts 120°
2026-05-01 13:28 48.80177 4.49790 28021 ft 414 kts 120°
2026-05-01 13:28 48.78774 4.53609 28333 ft 415 kts 121°
2026-05-01 13:29 48.75941 4.61280 28952 ft 419 kts 121°
2026-05-01 13:29 48.73085 4.69005 29530 ft 422 kts 121°
2026-05-01 13:30 48.67271 4.84623 30433 ft 431 kts 121°
2026-05-01 13:31 48.64305 4.92557 30852 ft 434 kts 121°
2026-05-01 13:31 48.59855 5.04446 31763 ft 432 kts 121°
2026-05-01 13:32 48.56894 5.12324 32365 ft 431 kts 121°
2026-05-01 13:33 48.52451 5.24078 33177 ft 431 kts 121°
2026-05-01 13:33 48.49474 5.31913 33720 ft 430 kts 122°
2026-05-01 13:34 48.46500 5.39733 34285 ft 429 kts 122°
2026-05-01 13:34 48.43531 5.47529 34755 ft 429 kts 122°
2026-05-01 13:35 48.40557 5.55302 35183 ft 429 kts 122°
2026-05-01 13:35 48.39071 5.59182 35249 ft 426 kts 122°
2026-05-01 13:36 48.34624 5.70770 35267 ft 427 kts 122°
2026-05-01 13:36 48.30529 5.82637 35249 ft 429 kts 109°
2026-05-01 13:37 48.29008 5.89727 35250 ft 429 kts 110°
2026-05-01 13:37 48.26839 5.99692 35248 ft 429 kts 110°
2026-05-01 13:38 48.24043 6.12413 35234 ft 430 kts 110°
2026-05-01 13:39 48.22163 6.20941 35239 ft 431 kts 110°
2026-05-01 13:39 48.20277 6.29465 35242 ft 431 kts 110°
2026-05-01 13:40 48.18378 6.37994 35253 ft 431 kts 110°
2026-05-01 13:40 48.16478 6.46525 35249 ft 432 kts 109°
2026-05-01 13:41 48.14563 6.55069 35252 ft 433 kts 109°
2026-05-01 13:41 48.12953 6.62224 35252 ft 433 kts 109°
2026-05-01 13:42 48.11038 6.70719 35262 ft 434 kts 109°
2026-05-01 13:42 48.09099 6.79321 35259 ft 434 kts 109°
2026-05-01 13:43 48.07160 6.87865 35256 ft 435 kts 109°
2026-05-01 13:43 48.05213 6.96368 35257 ft 435 kts 110°
2026-05-01 13:44 48.03247 7.04931 35261 ft 436 kts 110°
2026-05-01 13:44 48.01273 7.13513 35264 ft 437 kts 110°
2026-05-01 13:45 47.99303 7.22077 35266 ft 437 kts 110°
2026-05-01 13:45 47.97317 7.30649 35266 ft 437 kts 109°
2026-05-01 13:46 47.95319 7.39226 35262 ft 438 kts 109°
2026-05-01 13:46 47.93312 7.47803 35266 ft 438 kts 109°
2026-05-01 13:47 47.91297 7.56370 35269 ft 438 kts 109°
2026-05-01 13:47 47.89236 7.64916 35275 ft 438 kts 110°
2026-05-01 13:48 47.87068 7.73403 35276 ft 439 kts 111°
2026-05-01 13:48 47.84875 7.81885 35273 ft 439 kts 110°
2026-05-01 13:49 47.82702 7.90379 35277 ft 439 kts 110°
2026-05-01 13:49 47.80537 7.98874 35281 ft 439 kts 110°
2026-05-01 13:50 47.78364 8.07358 35282 ft 439 kts 110°
2026-05-01 13:50 47.76180 8.15838 35291 ft 439 kts 110°
2026-05-01 13:51 47.73993 8.24318 35291 ft 440 kts 110°
2026-05-01 13:51 47.71801 8.32792 35292 ft 440 kts 110°
2026-05-01 13:52 47.69596 8.41256 35294 ft 440 kts 111°
2026-05-01 13:52 47.67465 8.49756 35303 ft 439 kts 107°
2026-05-01 13:53 47.65564 8.58358 35302 ft 438 kts 106°
2026-05-01 13:53 47.62737 8.71251 35302 ft 438 kts 107°
2026-05-01 13:54 47.60789 8.79806 35305 ft 438 kts 107°
2026-05-01 13:54 47.58815 8.88348 35310 ft 438 kts 107°
2026-05-01 13:55 47.56842 8.96889 35304 ft 438 kts 107°
2026-05-01 13:55 47.54871 9.05428 35302 ft 438 kts 107°
2026-05-01 13:56 47.52891 9.13966 35301 ft 438 kts 107°
2026-05-01 13:56 47.50906 9.22488 35319 ft 438 kts 107°
2026-05-01 13:57 47.48919 9.31014 35315 ft 438 kts 107°
2026-05-01 13:57 47.46925 9.39511 35303 ft 438 kts 107°
2026-05-01 13:58 47.44925 9.48010 35311 ft 438 kts 107°
2026-05-01 13:58 47.42917 9.56496 35303 ft 438 kts 107°
2026-05-01 13:59 47.40936 9.64986 35319 ft 436 kts 103°
2026-05-01 13:59 47.39681 9.73707 35317 ft 434 kts 99°
2026-05-01 14:00 47.38475 9.82427 35313 ft 434 kts 99°
2026-05-01 14:00 47.37259 9.91146 35314 ft 434 kts 99°
2026-05-01 14:01 47.36032 9.99858 35314 ft 434 kts 99°
2026-05-01 14:01 47.34803 10.08561 35328 ft 433 kts 99°
2026-05-01 14:02 47.33564 10.17250 35325 ft 433 kts 99°
2026-05-01 14:02 47.32331 10.25922 35324 ft 432 kts 99°
2026-05-01 14:03 47.31097 10.34585 35317 ft 432 kts 99°
2026-05-01 14:03 47.29854 10.43236 35333 ft 431 kts 99°
2026-05-01 14:04 47.28601 10.51878 35324 ft 431 kts 99°
2026-05-01 14:04 47.27554 10.59037 35321 ft 430 kts 99°
2026-05-01 14:05 47.26078 10.69095 35309 ft 430 kts 99°
2026-05-01 14:05 47.24811 10.77694 35308 ft 430 kts 99°
2026-05-01 14:06 47.23535 10.86283 35320 ft 429 kts 99°
2026-05-01 14:06 47.22256 10.94855 35316 ft 428 kts 99°
2026-05-01 14:07 47.20979 11.03346 35307 ft 428 kts 99°
2026-05-01 14:08 47.19050 11.16145 35299 ft 427 kts 99°
2026-05-01 14:08 47.17749 11.24668 35316 ft 427 kts 99°
2026-05-01 14:09 47.16451 11.33160 35288 ft 425 kts 99°
2026-05-01 14:09 47.15156 11.41638 35288 ft 425 kts 99°
2026-05-01 14:10 47.13833 11.50162 35284 ft 425 kts 99°
2026-05-01 14:10 47.12525 11.58552 35279 ft 424 kts 99°
2026-05-01 14:11 47.11205 11.67005 35304 ft 424 kts 99°
2026-05-01 14:11 47.09208 11.79720 35306 ft 424 kts 99°
2026-05-01 14:12 47.07662 11.88075 35285 ft 428 kts 109°
2026-05-01 14:12 47.05092 11.95918 35298 ft 430 kts 112°
2026-05-01 14:13 47.02882 12.02514 35295 ft 430 kts 112°
2026-05-01 14:13 46.99823 12.11651 35288 ft 430 kts 112°
2026-05-01 14:14 46.97183 12.19509 35307 ft 430 kts 112°
2026-05-01 14:14 46.94536 12.27349 35305 ft 430 kts 112°
2026-05-01 14:15 46.91886 12.35181 35319 ft 430 kts 112°
2026-05-01 14:15 46.89227 12.43011 35322 ft 430 kts 112°
2026-05-01 14:16 46.86563 12.50826 35307 ft 429 kts 112°
2026-05-01 14:16 46.83903 12.58632 35298 ft 429 kts 112°
2026-05-01 14:17 46.81237 12.66428 35296 ft 429 kts 112°
2026-05-01 14:17 46.78563 12.74205 35306 ft 429 kts 112°
2026-05-01 14:18 46.75879 12.81962 35302 ft 428 kts 112°
2026-05-01 14:18 46.73637 12.88451 35289 ft 427 kts 112°
2026-05-01 14:19 46.70517 12.97444 35296 ft 428 kts 112°
2026-05-01 14:19 46.67836 13.05182 35292 ft 428 kts 112°
2026-05-01 14:20 46.63793 13.16767 35317 ft 428 kts 112°
2026-05-01 14:21 46.61091 13.24473 35325 ft 428 kts 112°
2026-05-01 14:21 46.58383 13.32168 35326 ft 427 kts 112°
2026-05-01 14:22 46.55285 13.39575 35329 ft 435 kts 125°
2026-05-01 14:22 46.53247 13.42844 35345 ft 437 kts 128°
2026-05-01 14:22 46.49105 13.49308 35342 ft 438 kts 128°
2026-05-01 14:23 46.44958 13.55778 35335 ft 438 kts 127°
2026-05-01 14:23 46.40815 13.62240 35333 ft 438 kts 128°
2026-05-01 14:24 46.37364 13.67608 35335 ft 438 kts 128°
2026-05-01 14:24 46.33202 13.74065 35366 ft 439 kts 127°
2026-05-01 14:25 46.29032 13.80514 35348 ft 439 kts 127°
2026-05-01 14:25 46.24847 13.86962 35340 ft 440 kts 127°
2026-05-01 14:26 46.18583 13.96609 35327 ft 439 kts 127°
2026-05-01 14:27 46.14400 14.03039 35322 ft 439 kts 127°
2026-05-01 14:27 46.10212 14.09450 35356 ft 439 kts 127°
2026-05-01 14:28 46.03918 14.19044 35341 ft 439 kts 127°
2026-05-01 14:28 45.99725 14.25435 35334 ft 439 kts 127°
2026-05-01 14:29 45.95530 14.31812 35325 ft 439 kts 127°
2026-05-01 14:30 45.87148 14.44483 35344 ft 439 kts 127°
2026-05-01 14:31 45.80839 14.54002 35339 ft 439 kts 127°
2026-05-01 14:31 45.76630 14.60336 35339 ft 439 kts 127°
2026-05-01 14:32 45.72413 14.66652 35365 ft 439 kts 126°
2026-05-01 14:32 45.68186 14.72961 35353 ft 439 kts 127°
2026-05-01 14:33 45.63961 14.79253 35336 ft 439 kts 127°
2026-05-01 14:33 45.59737 14.85541 35330 ft 439 kts 126°
2026-05-01 14:34 45.55511 14.91822 35335 ft 438 kts 126°
2026-05-01 14:34 45.51273 14.98081 35363 ft 438 kts 126°
2026-05-01 14:35 45.46957 15.04245 35349 ft 440 kts 129°
2026-05-01 14:35 45.42471 15.10195 35340 ft 441 kts 130°
2026-05-01 14:36 45.37935 15.16083 35334 ft 441 kts 130°
2026-05-01 14:36 45.33434 15.21991 35332 ft 440 kts 129°
2026-05-01 14:37 45.28952 15.27917 35331 ft 440 kts 129°
2026-05-01 14:37 45.24471 15.33829 35329 ft 440 kts 129°
2026-05-01 14:38 45.19979 15.39730 35326 ft 440 kts 129°
2026-05-01 14:38 45.15478 15.45621 35326 ft 440 kts 129°
2026-05-01 14:39 45.10975 15.51505 35334 ft 440 kts 130°
2026-05-01 14:39 45.06472 15.57379 35353 ft 440 kts 129°
2026-05-01 14:40 45.01970 15.63238 35344 ft 440 kts 129°
2026-05-01 14:40 44.97464 15.69088 35337 ft 440 kts 129°
2026-05-01 14:41 44.92952 15.74921 35336 ft 440 kts 129°
2026-05-01 14:41 44.88439 15.80747 35372 ft 440 kts 129°
2026-05-01 14:42 44.83928 15.86570 35354 ft 439 kts 129°
2026-05-01 14:42 44.79425 15.92372 35342 ft 439 kts 129°
2026-05-01 14:43 44.74918 15.98159 35340 ft 439 kts 129°
2026-05-01 14:43 44.70405 16.03935 35327 ft 439 kts 129°
2026-05-01 14:44 44.65888 16.09703 35344 ft 439 kts 129°
2026-05-01 14:44 44.59113 16.18343 35335 ft 439 kts 129°
2026-05-01 14:45 44.52321 16.26972 35319 ft 440 kts 129°
2026-05-01 14:46 44.47791 16.32718 35309 ft 439 kts 129°
2026-05-01 14:46 44.40996 16.41314 35319 ft 440 kts 130°
2026-05-01 14:47 44.36450 16.47030 35316 ft 440 kts 130°
2026-05-01 14:48 44.29653 16.55568 35297 ft 441 kts 130°
2026-05-01 14:48 44.22804 16.64154 35305 ft 442 kts 130°
2026-05-01 14:49 44.13630 16.75600 35306 ft 443 kts 130°
2026-05-01 14:50 44.04414 16.87051 35278 ft 445 kts 131°
2026-05-01 14:51 43.97474 16.95650 35261 ft 446 kts 131°
2026-05-01 14:52 43.90506 17.04243 35268 ft 447 kts 131°
2026-05-01 14:53 43.83525 17.12844 35263 ft 449 kts 133°
2026-05-01 14:53 43.78842 17.18571 35258 ft 450 kts 133°
2026-05-01 14:54 43.74154 17.24301 35247 ft 450 kts 133°
2026-05-01 14:54 43.69457 17.30030 35245 ft 450 kts 133°
2026-05-01 14:55 43.64762 17.35755 35236 ft 450 kts 134°
2026-05-01 14:55 43.60060 17.41491 35247 ft 452 kts 135°
2026-05-01 14:56 43.55334 17.47217 35227 ft 453 kts 135°
2026-05-01 14:56 43.50590 17.52939 35220 ft 453 kts 135°
2026-05-01 14:57 43.45846 17.58667 35208 ft 454 kts 135°
2026-05-01 14:57 43.38721 17.67264 35208 ft 454 kts 135°
2026-05-01 14:58 43.33965 17.72986 35205 ft 455 kts 135°
2026-05-01 14:58 43.29191 17.78696 35218 ft 455 kts 135°
2026-05-01 14:59 43.24411 17.84407 35172 ft 456 kts 135°
2026-05-01 14:59 43.19631 17.90124 35167 ft 456 kts 135°
2026-05-01 15:00 43.12452 17.98673 35186 ft 456 kts 136°
2026-05-01 15:01 43.07666 18.04346 35193 ft 455 kts 136°
2026-05-01 15:01 43.02846 18.10048 35200 ft 455 kts 136°
2026-05-01 15:02 42.98062 18.15709 35196 ft 455 kts 136°
2026-05-01 15:02 42.93309 18.21316 35197 ft 455 kts 136°
2026-05-01 15:03 42.88506 18.26962 35169 ft 456 kts 136°
2026-05-01 15:03 42.83698 18.32611 35164 ft 456 kts 136°
2026-05-01 15:04 42.78884 18.38258 35159 ft 457 kts 136°
2026-05-01 15:04 42.74062 18.43900 35180 ft 457 kts 137°
2026-05-01 15:05 42.69227 18.49535 35155 ft 459 kts 137°
2026-05-01 15:05 42.64373 18.55188 35150 ft 460 kts 137°
2026-05-01 15:06 42.59508 18.60847 35150 ft 461 kts 137°
2026-05-01 15:06 42.54631 18.66501 35147 ft 461 kts 137°
2026-05-01 15:07 42.49743 18.72156 35149 ft 462 kts 137°
2026-05-01 15:07 42.44848 18.77804 35163 ft 462 kts 138°
2026-05-01 15:08 42.39957 18.83444 35174 ft 462 kts 139°
2026-05-01 15:08 42.35894 18.88118 35172 ft 461 kts 139°
2026-05-01 15:09 42.31007 18.93727 35167 ft 461 kts 139°
2026-05-01 15:09 42.26114 18.99323 35166 ft 461 kts 139°
2026-05-01 15:10 42.21226 19.04909 35157 ft 461 kts 139°
2026-05-01 15:10 42.13876 19.13284 35147 ft 462 kts 139°
2026-05-01 15:11 42.06502 19.21665 35133 ft 463 kts 139°
2026-05-01 15:12 42.01579 19.27245 35137 ft 463 kts 140°
2026-05-01 15:12 41.94177 19.35605 35131 ft 464 kts 140°
2026-05-01 15:14 41.81794 19.49540 35124 ft 466 kts 141°
2026-05-01 15:14 41.74345 19.57895 35118 ft 469 kts 141°
2026-05-01 15:15 41.64320 19.69086 35124 ft 469 kts 141°
2026-05-01 15:16 41.54289 19.80258 35131 ft 469 kts 142°
2026-05-01 15:18 41.41709 19.94165 35100 ft 470 kts 142°
2026-05-01 15:19 41.31623 20.05289 35106 ft 471 kts 142°
2026-05-01 15:19 41.24040 20.13620 35124 ft 471 kts 142°
2026-05-01 15:20 41.16436 20.21925 35115 ft 473 kts 143°
2026-05-01 15:21 41.11357 20.27468 35119 ft 473 kts 143°
2026-05-01 15:21 41.06265 20.33004 35121 ft 473 kts 143°
2026-05-01 15:22 40.98629 20.41302 35135 ft 474 kts 143°
2026-05-01 15:22 40.93533 20.46828 35136 ft 474 kts 144°
2026-05-01 15:23 40.88432 20.52341 35145 ft 474 kts 144°
2026-05-01 15:23 40.83330 20.57848 35143 ft 473 kts 144°
2026-05-01 15:24 40.78231 20.63354 35151 ft 474 kts 144°
2026-05-01 15:24 40.73129 20.68842 35152 ft 473 kts 144°
2026-05-01 15:25 40.68013 20.74316 35133 ft 474 kts 145°
2026-05-01 15:25 40.62893 20.79793 35135 ft 474 kts 144°
2026-05-01 15:26 40.57767 20.85273 35134 ft 475 kts 145°
2026-05-01 15:26 40.52632 20.90745 35149 ft 475 kts 145°
2026-05-01 15:27 40.47496 20.96209 35153 ft 476 kts 144°
2026-05-01 15:28 40.39989 21.04794 35144 ft 478 kts 142°
2026-05-01 15:28 40.35037 21.10626 35151 ft 479 kts 143°
2026-05-01 15:29 40.27565 21.19236 35180 ft 479 kts 143°
2026-05-01 15:30 40.17512 21.30724 35164 ft 480 kts 144°
2026-05-01 15:31 40.02356 21.47993 35202 ft 483 kts 144°
2026-05-01 15:32 39.92208 21.59473 35185 ft 483 kts 144°
2026-05-01 15:34 39.76916 21.76709 35203 ft 486 kts 144°